Weather History for Moses Lake, WA

Change the Weather History Date:

Monday, April 22, 2013

  Actual Average Record
Temperature  
Mean Temperature 47 °F 52 °F  
Max Temperature 63 °F 65 °F 84 °F (2012)
Min Temperature 30 °F 38 °F 20 °F (1985)
Degree Days  
Heating Degree Days 18 13  
Month to date heating degree days 305 347  
Since 1 July heating degree days 5036 5519  
Cooling Degree Days 0 0  
Month to date cooling degree days 0 0  
Year to date cooling degree days 0 0  
Moisture  
Dew Point 22 °F    
Average Humidity 47    
Maximum Humidity 78    
Minimum Humidity 16    
Precipitation  
Precipitation 0.00 in 0.02 in 0.21 in (2014)
Month to date precipitation 0.36 0.52  
Year to date precipitation 1.38 3.24  
Sea Level Pressure  
Sea Level Pressure 30.45 in    
Wind  
Wind Speed 6 mph (North)    
Max Wind Speed 14 mph    
Max Gust Speed 17 mph    
Visibility 10 miles    
Events      
T = Trace of Precipitation, MM = Missing Value Source: NWS Daily Summary

Daily Weather History Graph

Daily Weather History Graph

Search for Another Location

Airport:

Trip Planner

Search our weather history database for the weather conditions in past years. The results will help you decide how hot, cold, wet, or windy it might be!

Date:

Astronomy

Apr. 22, 2013 Rise Set
Actual Time 5:55 AM PDT 7:56 PM PDT
Civil Twilight 5:22 AM PDT 8:29 PM PDT
Nautical Twilight 4:42 AM PDT 9:10 PM PDT
Astronomical Twilight 3:57 AM PDT 9:55 PM PDT
Moon 4:39 PM PDT (4/22) 4:06 AM PDT (4/22)
Length of Visible Light 15h 06m
Length of Day
14h 00m
Waxing Gibbous, 88% of the Moon is Illuminated
Apr 22
Waxing Gibbous
Apr 25
Full
May 2
Last Quarter
May 9
New
May 17
First Quarter

Hourly Weather History & Observations

Time (PDT) Temp. Windchill Dew Point Humidity Pressure Visibility Wind Dir Wind Speed Gust Speed Precip Events Conditions
12:52 AM 44.1 °F 38.1 °F 21.0 °F 40% 30.31 in 10.0 mi North 11.5 mph - N/A   Partly Cloudy
1:52 AM 41.0 °F 34.7 °F 25.0 °F 53% 30.35 in 10.0 mi NE 10.4 mph - N/A   Clear
2:52 AM 37.0 °F 30.4 °F 27.0 °F 67% 30.37 in 10.0 mi NNE 9.2 mph - N/A   Clear
3:52 AM 36.0 °F 28.5 °F 27.0 °F 70% 30.39 in 10.0 mi North 10.4 mph - N/A   Clear
4:52 AM 35.1 °F 27.9 °F 26.1 °F 70% 30.56 in 10.0 mi North 9.2 mph - N/A   Clear
5:52 AM 30.0 °F 22.4 °F 24.1 °F 79% 30.45 in 10.0 mi NNW 8.1 mph - N/A   Clear
6:52 AM 36.0 °F 32.1 °F 28.0 °F 73% 30.47 in 10.0 mi North 4.6 mph - N/A   Clear
7:52 AM 41.0 °F 37.1 °F 28.0 °F 60% 30.50 in 10.0 mi ENE 5.8 mph - N/A   Clear
8:52 AM 46.9 °F - 26.1 °F 44% 30.66 in 10.0 mi North 3.5 mph - N/A   Clear
9:52 AM 51.1 °F - 27.0 °F 39% 30.51 in 10.0 mi Variable 3.5 mph - N/A   Clear
10:52 AM 55.0 °F - 19.0 °F 24% 30.50 in 10.0 mi Variable 6.9 mph - N/A   Clear
11:52 AM 55.9 °F - 19.9 °F 25% 30.50 in 10.0 mi Variable 4.6 mph - N/A   Clear
12:52 PM 57.9 °F - 17.1 °F 20% 30.48 in 10.0 mi North 8.1 mph - N/A   Clear
1:52 PM 57.9 °F - 15.1 °F 19% 30.46 in 10.0 mi Variable 4.6 mph - N/A   Clear
2:52 PM 60.1 °F - 16.0 °F 18% 30.45 in 10.0 mi Variable 4.6 mph - N/A   Clear
3:52 PM 60.1 °F - 15.1 °F 17% 30.43 in 10.0 mi Variable 3.5 mph - N/A   Clear
4:52 PM 61.0 °F - 14.0 °F 16% 30.42 in 10.0 mi Variable 5.8 mph - N/A   Clear
5:52 PM 61.0 °F - 15.1 °F 17% 30.55 in 10.0 mi Variable 5.8 mph - N/A   Clear
6:52 PM 59.0 °F - 16.0 °F 19% 30.39 in 10.0 mi SW 9.2 mph - N/A   Clear
7:52 PM 55.9 °F - 19.0 °F 24% 30.40 in 10.0 mi SSW 8.1 mph - N/A   Clear
8:52 PM 54.0 °F - 21.0 °F 28% 30.40 in 10.0 mi SSW 8.1 mph - N/A   Clear
9:52 PM 52.0 °F - 25.0 °F 35% 30.40 in 10.0 mi SW 5.8 mph - N/A   Clear
11:52 PM 45.0 °F - 23.0 °F 42% 30.38 in 10.0 mi Calm Calm - N/A   Clear